Amsterdam, Netherlands

10:38 PM CEST on July 25, 2017 (GMT +0200)
Schiphol

Weather History for EHAM - May, 2014

Change the Weather History Date:

Friday, May 9, 2014

  Actual Average Record
Temperature  
Mean Temperature 54 °F -  
Max Temperature 61 °F 63 °F 78 °F (2000)
Min Temperature 48 °F 48 °F 37 °F (2017)
Degree Days  
Heating Degree Days 10    
Growing Degree Days 4 (Base 50)    
Moisture  
Dew Point 50 °F    
Average Humidity 79    
Maximum Humidity 98    
Minimum Humidity 52    
Precipitation  
Precipitation 0.12 in - - ()
Sea Level Pressure  
Sea Level Pressure 29.76 in    
Wind  
Wind Speed 17 mph ()    
Max Wind Speed 29 mph    
Max Gust Speed 44 mph    
Visibility 7.6 miles    
Events Rain , Thunderstorm    
Averages and records for this station are not official NWS values.
T = Trace of Precipitation, MM = Missing Value Source: Averaged Metar Reports

Daily Weather History Graph

Daily Weather History Graph

Search for Another Location

Airport or City:

Trip Planner

Search our weather history database for the weather conditions in past years. The results will help you decide how hot, cold, wet, or windy it might be!

Date:

Astronomy

May. 09, 2014 Rise Set
Actual Time 5:55 AM CEST 9:19 PM CEST
Civil Twilight 5:14 AM CEST 10:01 PM CEST
Nautical Twilight 4:19 AM CEST 10:56 PM CEST
Astronomical Twilight 3:02 AM CEST 12:16 AM CEST
Moon 3:21 PM CEST (5/9) 3:33 AM CEST (5/9)
Length of Visible Light 16h 46m
Length of Day
15h 24m
Waxing Gibbous, 71% of the Moon is Illuminated
May 9
Waxing Gibbous
May 14
Full
May 21
Last Quarter
May 28
New
Jun 5
First Quarter

Hourly Weather History & Observations

Time (CEST) Temp. Dew Point Humidity Pressure Visibility Wind Dir Wind Speed Gust Speed Precip Events Conditions
12:00 AM 56 °F 54 °F 91%  in 6 mi Calm Calm - - Rain Rain
12:25 AM 55.4 °F 53.6 °F 94% 29.62 in 4.3 mi West 15.0 mph - N/A Rain Light Rain
12:55 AM 55.4 °F 53.6 °F 94% 29.65 in 5.0 mi West 13.8 mph - N/A   Overcast
1:00 AM 55 °F 54 °F 98%  in 7 mi Calm Calm - - Rain Rain
1:25 AM 55.4 °F 53.6 °F 94% 29.65 in 5.0 mi West 15.0 mph - N/A   Overcast
1:55 AM 55.4 °F 53.6 °F 94% 29.68 in 6.2 mi West 13.8 mph - N/A   Overcast
2:00 AM 55 °F 54 °F 94%  in 8 mi Calm Calm - -   Partly Cloudy
2:25 AM 55.4 °F 53.6 °F 94% 29.68 in 6.2 mi West 13.8 mph - N/A   Overcast
2:55 AM 55.4 °F 53.6 °F 94% 29.68 in 6.2 mi West 13.8 mph - N/A   Mostly Cloudy
3:00 AM 56 °F 54 °F 90%  in 8 mi Calm Calm - - Rain Rain
3:25 AM 55.4 °F 53.6 °F 94% 29.68 in 6.2 mi WSW 16.1 mph - N/A   Mostly Cloudy
3:55 AM 55.4 °F 53.6 °F 94% 29.68 in 6.2 mi WSW 17.3 mph - N/A   Mostly Cloudy
4:00 AM 56 °F 53 °F 86%  in 9 mi Calm Calm - -   Partly Cloudy
4:25 AM 55.4 °F 53.6 °F 94% 29.71 in 6.2 mi WSW 19.6 mph - N/A   Mostly Cloudy
4:55 AM 55.4 °F 51.8 °F 88% 29.71 in 6.2 mi WSW 17.3 mph - N/A   Mostly Cloudy
5:00 AM 55 °F 53 °F 88%  in 9 mi Calm Calm - -   Partly Cloudy
5:25 AM 55.4 °F 51.8 °F 88% 29.71 in 6.2 mi WSW 17.3 mph - N/A   Mostly Cloudy
5:55 AM 55.4 °F 51.8 °F 88% 29.71 in 6.2 mi WSW 18.4 mph - N/A   Mostly Cloudy
6:00 AM 55 °F 52 °F 86%  in 9 mi Calm Calm - -   Partly Cloudy
6:25 AM 55.4 °F 51.8 °F 88% 29.71 in 6.2 mi WSW 16.1 mph - N/A   Mostly Cloudy
6:55 AM 55.4 °F 51.8 °F 88% 29.74 in 6.2 mi WSW 18.4 mph - N/A   Mostly Cloudy
7:00 AM 55 °F 52 °F 84%  in 9 mi Calm Calm - -   Partly Cloudy
7:25 AM 55.4 °F 51.8 °F 88% 29.74 in 6.2 mi WSW 20.7 mph - N/A   Mostly Cloudy
7:55 AM 55.4 °F 51.8 °F 88% 29.74 in 6.2 mi WSW 18.4 mph - N/A   Mostly Cloudy
8:00 AM 55 °F 52 °F 84%  in 11 mi Calm Calm - -   Partly Cloudy
8:25 AM 55.4 °F 51.8 °F 88% 29.74 in 6.2 mi WSW 16.1 mph - N/A   Mostly Cloudy
8:55 AM 55.4 °F 51.8 °F 88% 29.74 in 6.2 mi WSW 18.4 mph - N/A   Mostly Cloudy
9:00 AM 56 °F 51 °F 78%  in 11 mi Calm Calm - -   Overcast
9:25 AM 55.4 °F 50.0 °F 82% 29.74 in 6.2 mi WSW 20.7 mph - N/A   Mostly Cloudy
9:55 AM 55.4 °F 50.0 °F 82% 29.74 in 6.2 mi WSW 23.0 mph 35.7 mph N/A   Mostly Cloudy
10:00 AM 56 °F 49 °F 72%  in 15 mi Calm Calm - -   Overcast
10:25 AM 55.4 °F 48.2 °F 77% 29.74 in 6.2 mi WSW 23.0 mph - N/A   Mostly Cloudy
10:55 AM 55.4 °F 48.2 °F 77% 29.74 in 6.2 mi WSW 25.3 mph - N/A   Scattered Clouds
11:00 AM 56 °F 49 °F 70%  in 12 mi Calm Calm - -   Overcast
11:25 AM 55.4 °F 48.2 °F 77% 29.74 in 6.2 mi WSW 26.5 mph 42.6 mph N/A   Mostly Cloudy
11:55 AM 57.2 °F 48.2 °F 72% 29.77 in 6.2 mi WSW 28.8 mph - N/A   Scattered Clouds
12:00 PM 57 °F 49 °F 67%  in 14 mi Calm Calm - - Rain Rain
12:25 PM 57.2 °F 48.2 °F 72% 29.77 in 6.2 mi WSW 23.0 mph - N/A   Scattered Clouds
12:55 PM 59.0 °F 48.2 °F 67% 29.77 in 6.2 mi WSW 27.6 mph 39.1 mph N/A   Scattered Clouds
1:00 PM 58 °F 48 °F 60%  in 10 mi Calm Calm - -   Partly Cloudy
1:25 PM 59.0 °F 48.2 °F 67% 29.77 in 6.2 mi WSW 27.6 mph 40.3 mph N/A   Scattered Clouds
1:55 PM 57.2 °F 48.2 °F 72% 29.77 in 6.2 mi WSW 27.6 mph 41.4 mph N/A   Scattered Clouds
2:00 PM 56 °F 46 °F 60%  in 10 mi Calm Calm - -   Partly Cloudy
2:25 PM 55.4 °F 46.4 °F 72% 29.77 in 6.2 mi SW 20.7 mph - N/A   Partly Cloudy
2:55 PM 59.0 °F 48.2 °F 67% 29.77 in 6.2 mi WSW 28.8 mph - N/A   Scattered Clouds
3:00 PM 60 °F 47 °F 53%  in 12 mi Calm Calm - - Rain Rain
3:25 PM 60.8 °F 48.2 °F 63% 29.77 in 6.2 mi WSW 28.8 mph 41.4 mph N/A   Partly Cloudy
3:55 PM 60.8 °F 48.2 °F 63% 29.77 in 6.2 mi WSW 27.6 mph 40.3 mph N/A   Partly Cloudy
4:00 PM 61 °F 50 °F 57%  in 8 mi Calm Calm - -   Partly Cloudy
4:25 PM 60.8 °F 48.2 °F 63% 29.77 in 6.2 mi WSW 27.6 mph 43.7 mph N/A   Partly Cloudy
4:55 PM 60.8 °F 48.2 °F 63% 29.77 in 6.2 mi WSW 25.3 mph 36.8 mph N/A   Partly Cloudy
5:00 PM 60 °F 47 °F 52%  in 10 mi Calm Calm - -   Unknown
5:25 PM 59.0 °F 48.2 °F 67% 29.77 in 6.2 mi WSW 24.2 mph - N/A   Partly Cloudy
5:55 PM 59.0 °F 46.4 °F 63% 29.77 in 6.2 mi WSW 25.3 mph 38.0 mph N/A   Partly Cloudy
6:00 PM 58 °F 47 °F 56%  in 10 mi Calm Calm - - Thunderstorm Light Thunderstorm
6:25 PM 48.2 °F 46.4 °F 93% 29.80 in 5.6 mi West 16.1 mph - N/A Rain , Thunderstorm Light Thunderstorms and Rain
6:55 PM 51.8 °F 48.2 °F 88% 29.83 in 6.2 mi West 15.0 mph - N/A   Partly Cloudy
7:00 PM 51 °F 47 °F 83%  in 10 mi Calm Calm - - Thunderstorm Light Thunderstorm
7:25 PM 51.8 °F 46.4 °F 82% 29.83 in 6.2 mi West 15.0 mph - N/A   Partly Cloudy
7:55 PM 53.6 °F 48.2 °F 82% 29.83 in 6.2 mi West 15.0 mph - N/A   Partly Cloudy
8:00 PM 53 °F 47 °F 74%  in 14 mi Calm Calm - -   Partly Cloudy
8:25 PM 53.6 °F 46.4 °F 77% 29.83 in 6.2 mi West 17.3 mph - N/A   Partly Cloudy
8:55 PM 53.6 °F 46.4 °F 77% 29.86 in 6.2 mi West 16.1 mph - N/A Rain Light Rain
9:00 PM 53 °F 45 °F 67%  in 19 mi Calm Calm - -   Mostly Cloudy
9:25 PM 51.8 °F 44.6 °F 76% 29.86 in 6.2 mi West 15.0 mph - N/A   Partly Cloudy
9:55 PM 51.8 °F 46.4 °F 82% 29.89 in 6.2 mi WSW 9.2 mph - N/A   Partly Cloudy
10:00 PM 52 °F 46 °F 74%  in 22 mi Calm Calm - -   Overcast
10:25 PM 51.8 °F 48.2 °F 88% 29.89 in 6.2 mi West 10.4 mph - N/A   Partly Cloudy
10:55 PM 50.0 °F 46.4 °F 87% 29.89 in 6.2 mi SW 8.1 mph - N/A   Partly Cloudy
11:00 PM 49 °F 47 °F 88%  in 16 mi Calm Calm - - Rain Rain
11:25 PM 50.0 °F 46.4 °F 87% 29.89 in - SW 8.1 mph - N/A   Clear
11:55 PM 50.0 °F 46.4 °F 87% 29.89 in - SSW 6.9 mph - N/A   Clear